Regional Weather Roundup
Issued by NWS

Home | Current Version | Previous Version | Text Only | Print | Product List | Glossary On
Versions: 1 2 3 4 5 6 7 8 9 10 11 12 13 14 15 16 17 18 19 20 21 22 23 24 25 26 27 28 29 30 31 32 33 34 35 36 37 38 39 40 41 42 43 44 45 46 47 48 49 50
000
ASUS45 KABQ 181810
RWRNM
NEW MEXICO REGIONAL WEATHER ROUNDUP
NATIONAL WEATHER SERVICE ALBUQUERQUE NM
1100 AM MST WED JAN 18 2017

NOTE: "FAIR" MEANS FEW OR NO CLOUDS BELOW 12,000 FEET AGL WITH NO
       SIGNIFICANT WEATHER OR OBSTRUCTIONS TO VISION.

      THIS PRODUCT IS RELEASED AS TWO VERSIONS.  ONE VERSION NEAR
      THE TOP OF THE HOUR CONTAINING PRELIMINARY DATA FROM ALBUQUERQUE
      AND OTHER STATIONS.  A FINAL VERSION WITH ADDITIONAL DATA IS
      ISSUED ABOUT 10 MINUTES AFTER THE HOUR.

NMZ501-503-504-510>518-181900-
NORTHWEST PLATEAU/NORTHCENTRAL MOUNTAINS

CITY           SKY/WX    TMP DP  RH WIND       PRES   REMARKS
FARMINGTON     CLOUDY    31  31 100 W3        30.13F
6HR MIN TEMP:  27; 6HR MAX TEMP:  31;

LOS ALAMOS     FAIR      35  30  82 E3        30.08F
SANTA FE       CLOUDY    37  31  78 N8        30.07F WCI  31
6HR MIN TEMP:  27; 6HR MAX TEMP:  38;

TAOS           CLOUDY    30  19  64 N9        30.08F WCI  22
ANGEL FIRE     CLOUDY    27  26  96 SW3       30.05F

$$
NMZ402-403-502-505>509-181900-
WESTCENTRAL MOUNTAINS/SOUTHWEST MOUNTAINS

CITY           SKY/WX    TMP DP  RH WIND       PRES   REMARKS
GALLUP         CLOUDY    34  32  92 SW7       30.15F WCI  28
6HR MIN TEMP:  24; 6HR MAX TEMP:  34; 6HR PCP: TRACE;

GRANTS         PTSUNNY   40  31  72 E3        30.14F
SILVER CITY    FAIR      46  36  68 NW3       30.17F

$$
NMZ407-409-411-412-181900-
SOUTHERN DESERTS

CITY           SKY/WX    TMP DP  RH WIND       PRES   REMARKS
DEMING         FAIR      48  40  73 SW6       30.18F
6HR MIN TEMP:  30; 6HR MAX TEMP:  48;

LAS CRUCES     CLOUDY    43  42  95 SE5       30.18F
HOLLOMAN AFB   FOG       41  41 100 S6        30.20F VSB 1
ALAMOGORDO     CLOUDY    41  41 100 SW7       30.18S
T OR C         CLOUDY    39  38  96 S6        30.14F FOG     WCI  35
6HR MIN TEMP:  31; 6HR MAX TEMP:  40;


$$
NMZ519>523-181900-
CENTRAL VALLEYS/CENTRAL HIGHLANDS

CITY           SKY/WX    TMP DP  RH WIND       PRES   REMARKS
ALBUQUERQUE    PTSUNNY   41  35  79 SW6       30.12F
6HR MIN TEMP:  36; 6HR MAX TEMP:  41; 6HR PCP:  0.01;

DOUBLE EAGLE   PTSUNNY   41  34  75 SW6       30.12F
MORIARTY ARPT  PTSUNNY   43  29  57 W15       30.08F
6HR MIN TEMP:  22; 6HR MAX TEMP:  44;

CLINES CORNERS PTSUNNY   37  30  75 W24G32    30.05F WCI  26
6HR MIN TEMP:  25; 6HR MAX TEMP:  37;

BELEN          CLOUDY    38  38 100 SE3       30.14F
6HR MIN TEMP:  32; 6HR MAX TEMP:  38;

SOCORRO        CLOUDY    38  36  92 S8        30.15F WCI  32
6HR MIN TEMP:  36; 6HR MAX TEMP:  38;


$$
NMZ524>526-539-540-181900-
SOUTHCENTRAL MOUNTAINS

CITY           SKY/WX    TMP DP  RH WIND       PRES   REMARKS
RUIDOSO        CLOUDY    37  36  93 NW9       30.13F WCI  31

$$
NMZ527>531-181900-
NORTHEAST HIGHLANDS/NORTHEAST PLAINS

CITY           SKY/WX    TMP DP  RH WIND       PRES   REMARKS
LAS VEGAS      FAIR      36  27  69 S9        29.98F WCI  29
6HR MIN TEMP:  17; 6HR MAX TEMP:  36;

RATON          FAIR      32  26  78 E7        29.93F WCI  26
6HR MIN TEMP:  27; 6HR MAX TEMP:  32;

CLAYTON        FAIR      47  36  65 S10       29.94F
6HR MIN TEMP:  33; 6HR MAX TEMP:  47;


$$
NMZ532>537-181900-
EASTCENTRAL PLAINS

CITY           SKY/WX    TMP DP  RH WIND       PRES   REMARKS
TUCUMCARI      FAIR      54  34  46 W14G23    29.97F
6HR MIN TEMP:  33; 6HR MAX TEMP:  54;

CANNON AFB     FAIR      47  47 100 W15       30.04F
6HR MIN TEMP:  38; 6HR MAX TEMP:  47;

CLOVIS AIRPORT FAIR      48  39  71 SW20      30.04F

$$
NMZ028-029-538-181900-
SOUTHEAST PLAINS

CITY           SKY/WX    TMP DP  RH WIND       PRES   REMARKS
ROSWELL        FAIR      52  40  63 S8        30.09F
6HR MIN TEMP:  36; 6HR MAX TEMP:  52;

ARTESIA        FAIR      46  46 100 SE8       30.11F
CARLSBAD       FAIR      52  41  66 S8        30.10F
6HR MIN TEMP:  34; 6HR MAX TEMP:  52;

HOBBS          MOSUNNY   50  41  71 SW8       30.13F


$$




USA.gov is the U.S. government's official web portal to all federal, state and local government web resources and services.